STARLINK-1506 (45747 NORAD) Tracking and Keplerian Element Data

This shows tracking and keplerian element data for the satellite.

Feedback or suggestion? Click here.




ElementValue
Catalog45747
NameSTARLINK-1506
Epoch Orbit427
Epoch Day185.50001157
Epoch Year2020
RAAN198.3155
Inclination53.0012
Eccentricity0.0001295
Argument of Perigee97.0475
Mean Anonmoly253.4746
Mean Motion15.62724997
Decay Rate0.00048938
L11 45747U 20038T 20185.50001157 .00048938 00000-0 53765-3 0 9996
L22 45747 53.0012 198.3155 0001295 97.0475 253.4746 15.62724997 4277

Live tracking and technical data element details for STARLINK-1506 (NORAD 45747). STARLINK-1506 can be tracked NOW for your location showing map with azimuth and elevation plus other details from your city location.

Track the satellite on the map from your city or location and see movement details for azimuth, elevation, latitude, longitude, range, height, and movement on the map or in text.







IsCatalogInMostPopularTable: catalog: 45747, numindb: 4
Update: records affected: 1



GetName: 45747 STARLINK-1506

Hit Count: updated at: Sat, 04 Jul 2020 01:22:42 GMT